Location: *
(50.8160°S, 176.0219°W)
Time: 03:15:51
(UTC+00:00)

CORIOLIS - Pass Details

Date: 19 May 2026
Orbit: 816 x 835 km, 98.7° (Epoch: 8 June)

Event Time Altitude Azimuth Distance (km) Brightness Sun altitude
Rises 16:46:13 0° 20° (NNE) 3,364 7.6 -23.8°
Reaches altitude 10° 16:48:33 10° 21° (NNE) 2,436 6.9 -23.4°
Maximum altitude 16:53:58 83° 106° (ESE) 847 4.2 -22.6°
Drops below altitude 10° 16:59:25 10° 194° (SSW) 2,454 6.4 -21.7°
Enters shadow 17:01:08 - 194° (SSW) 3,134 7.0 -21.4°
